Time[GMT],gps_lat[degrees_north](-3m),gps_lon[degrees_west](-3m),gps_2_lat[degrees_north](-3m),gps_2_lon[degrees_west](-3m)
2006-09-12 14:00,43.712833405,-69.355400085,43.71,-69.36
2006-09-12 15:00,43.712882996,-69.355369568,43.71,-69.36
2006-09-12 16:00,43.712898254,-69.355453491,43.71,-69.36
2006-09-12 17:00,43.712917328,-69.355552673,43.71,-69.36
2006-09-12 18:00,43.713001251,-69.355697632,43.71,-69.36
2006-09-12 19:00,43.713016510,-69.355766296,43.71,-69.36
2006-09-12 20:00,43.712966919,-69.355735779,43.71,-69.36
2006-09-12 21:00,43.712951660,-69.355712891,43.71,-69.36
2006-09-12 22:00,43.713001251,-69.355735779,43.71,-69.36
2006-09-12 23:00,43.713016510,-69.355613708,43.71,-69.36
2006-09-13 00:00,43.713050842,-69.355552673,43.71,-69.36
2006-09-13 01:00,43.713031769,-69.355384827,43.71,-69.36
2006-09-13 02:00,43.713031769,-69.355369568,43.71,-69.36
2006-09-13 03:00,43.713001251,-69.355331421,43.71,-69.36
2006-09-13 04:00,43.713001251,-69.355384827,43.71,-69.36
2006-09-13 05:00,43.713001251,-69.355400085,43.71,-69.36
2006-09-13 06:00,43.713016510,-69.355514526,43.71,-69.36
2006-09-13 07:00,43.712898254,-69.355583191,43.71,-69.36
2006-09-13 08:00,43.712867737,-69.355613708,43.71,-69.36
2006-09-13 09:00,43.712882996,-69.355613708,43.71,-69.36
2006-09-13 10:00,43.712799072,-69.355613708,43.71,-69.36
2006-09-13 11:00,43.712833405,-69.355636597,43.71,-69.36
2006-09-13 12:00,43.712867737,-69.355567932,43.71,-69.36
2006-09-13 13:00,43.712951660,-69.355567932,43.71,-69.36
2006-09-13 14:00,43.713016510,-69.355529785,43.71,-69.36
2006-09-13 15:00,43.713085175,-69.355468750,43.71,-69.36
2006-09-13 16:00,43.713066101,-69.355468750,43.71,-69.36
2006-09-13 17:00,43.713100433,-69.355499268,43.71,-69.36
2006-09-13 18:00,43.713115692,-69.355453491,43.71,-69.36
2006-09-13 19:00,43.713031769,-69.355529785,43.71,-69.36
2006-09-13 20:00,43.713031769,-69.355529785,43.71,-69.36
2006-09-13 21:00,43.712951660,-69.355598450,43.71,-69.36
2006-09-13 22:00,43.712917328,-69.355529785,43.71,-69.36
2006-09-13 23:00,43.712867737,-69.355499268,43.71,-69.36
2006-09-14 00:00,43.713031769,-69.355247498,43.71,-69.36
2006-09-14 01:00,43.713050842,-69.355285645,43.71,-69.36
2006-09-14 02:00,43.712982178,-69.355232239,43.71,-69.36
2006-09-14 03:00,43.713001251,-69.355232239,43.71,-69.36
2006-09-14 04:00,43.713031769,-69.355247498,43.71,-69.36
2006-09-14 05:00,43.713050842,-69.355346680,43.71,-69.36
2006-09-14 06:00,43.713031769,-69.355384827,43.71,-69.36
2006-09-14 07:00,43.713066101,-69.355430603,43.71,-69.36
2006-09-14 08:00,43.713001251,-69.355529785,43.71,-69.36
2006-09-14 09:00,43.712966919,-69.355583191,43.71,-69.36
2006-09-14 10:00,43.712917328,-69.355651855,43.71,-69.36
2006-09-14 11:00,43.712898254,-69.355651855,43.71,-69.36
2006-09-14 12:00,43.712882996,-69.355636597,43.71,-69.36
2006-09-14 13:00,43.712951660,-69.355583191,43.71,-69.36
2006-09-14 14:00,43.712982178,-69.355598450,43.71,-69.36
2006-09-14 15:00,43.713031769,-69.355567932,43.71,-69.36
2006-09-14 16:00,43.713031769,-69.355529785,43.71,-69.36
2006-09-14 17:00,43.713016510,-69.355598450,43.71,-69.36
2006-09-14 18:00,43.713031769,-69.355529785,43.71,-69.36
2006-09-14 19:00,43.713016510,-69.355567932,43.71,-69.36
2006-09-14 20:00,43.713001251,-69.355598450,43.71,-69.36
2006-09-14 21:00,43.713001251,-69.355613708,43.71,-69.36
2006-09-14 22:00,43.712917328,-69.355583191,43.71,-69.36
2006-09-14 23:00,43.712867737,-69.355567932,43.70,-69.35
2006-09-15 00:00,43.712867737,-69.355598450,43.71,-69.36
2006-09-15 01:00,43.712882996,-69.355636597,43.71,-69.36
2006-09-15 02:00,43.712882996,-69.355598450,43.71,-69.36
2006-09-15 03:00,43.712917328,-69.355583191,43.71,-69.36
2006-09-15 04:00,43.712932587,-69.355613708,43.71,-69.36
2006-09-15 05:00,43.713016510,-69.355598450,43.71,-69.36
2006-09-15 06:00,43.712917328,-69.355552673,43.71,-69.36
2006-09-15 07:00,43.712917328,-69.355529785,43.71,-69.36
2006-09-15 08:00,43.712882996,-69.355552673,43.71,-69.36
2006-09-15 09:00,43.712932587,-69.355598450,43.71,-69.36
2006-09-15 10:00,43.712833405,-69.355598450,43.71,-69.36
2006-09-15 11:00,43.712848663,-69.355583191,43.71,-69.36
2006-09-15 12:00,43.712917328,-69.355613708,43.71,-69.36
2006-09-15 13:00,43.712898254,-69.355583191,43.71,-69.36
2006-09-15 14:00,43.712848663,-69.355598450,43.71,-69.36
2006-09-15 15:00,43.712966919,-69.355567932,43.71,-69.36
2006-09-15 16:00,43.713016510,-69.355552673,43.71,-69.36
2006-09-15 17:00,43.713085175,-69.355499268,43.71,-69.36
2006-09-15 18:00,43.713050842,-69.355514526,43.71,-69.36
2006-09-15 19:00,43.713050842,-69.355529785,43.71,-69.36
2006-09-15 20:00,43.713031769,-69.355514526,43.71,-69.36
2006-09-15 21:00,43.713016510,-69.355514526,43.71,-69.36
2006-09-15 22:00,43.713016510,-69.355583191,43.71,-69.36
2006-09-15 23:00,43.713016510,-69.355583191,43.71,-69.36
2006-09-16 00:00,43.713001251,-69.355567932,43.71,-69.36
2006-09-16 01:00,43.713001251,-69.355529785,43.71,-69.36
2006-09-16 02:00,43.712951660,-69.355484009,43.71,-69.36
2006-09-16 03:00,43.712951660,-69.355499268,43.71,-69.36
2006-09-16 04:00,43.712966919,-69.355514526,43.71,-69.36
2006-09-16 05:00,43.712966919,-69.355514526,43.71,-69.36
2006-09-16 06:00,43.712966919,-69.355552673,43.71,-69.36
2006-09-16 07:00,43.713031769,-69.355552673,43.71,-69.36
2006-09-16 08:00,43.713016510,-69.355567932,43.71,-69.36
2006-09-16 09:00,43.713001251,-69.355598450,43.71,-69.36
2006-09-16 10:00,43.713031769,-69.355598450,43.71,-69.36
2006-09-16 11:00,43.713031769,-69.355651855,43.71,-69.36
2006-09-16 12:00,43.712951660,-69.355636597,43.71,-69.36
2006-09-16 13:00,43.712966919,-69.355613708,43.71,-69.36
2006-09-16 14:00,43.712951660,-69.355583191,43.71,-69.36
2006-09-16 15:00,43.712951660,-69.355552673,43.71,-69.36
2006-09-16 16:00,43.712932587,-69.355567932,43.71,-69.36
2006-09-16 17:00,43.713001251,-69.355514526,43.71,-69.36
2006-09-16 18:00,43.713016510,-69.355514526,43.71,-69.36
2006-09-16 19:00,43.713031769,-69.355484009,43.71,-69.36
2006-09-16 20:00,43.713085175,-69.355529785,43.71,-69.36
2006-09-16 21:00,43.713001251,-69.355552673,43.71,-69.36
2006-09-16 22:00,43.712966919,-69.355514526,43.71,-69.36
2006-09-16 23:00,43.712982178,-69.355529785,43.71,-69.36
2006-09-17 00:00,43.713016510,-69.355499268,43.71,-69.36
2006-09-17 01:00,43.712982178,-69.355567932,43.71,-69.36
2006-09-17 02:00,43.713031769,-69.355613708,43.71,-69.36
2006-09-17 03:00,43.712966919,-69.355552673,43.71,-69.36
2006-09-17 04:00,43.713016510,-69.355514526,43.71,-69.36
2006-09-17 05:00,43.713016510,-69.355514526,43.71,-69.36
2006-09-17 06:00,43.712982178,-69.355499268,43.71,-69.36
2006-09-17 07:00,43.713031769,-69.355499268,43.71,-69.36
2006-09-17 08:00,43.713066101,-69.355453491,43.71,-69.36
2006-09-17 09:00,43.713050842,-69.355415344,43.71,-69.36
2006-09-17 10:00,43.713066101,-69.355415344,43.71,-69.36
2006-09-17 11:00,43.713085175,-69.355430603,43.71,-69.36
2006-09-17 12:00,43.713066101,-69.355400085,43.71,-69.36
2006-09-17 13:00,43.713085175,-69.355415344,43.71,-69.36
2006-09-17 14:00,43.713050842,-69.355384827,43.71,-69.36
2006-09-17 15:00,43.713016510,-69.355369568,43.71,-69.36
2006-09-17 16:00,43.713001251,-69.355384827,43.71,-69.36
2006-09-17 17:00,43.713016510,-69.355369568,43.70,-69.35
2006-09-17 18:00,43.713031769,-69.355346680,43.71,-69.36
2006-09-17 19:00,43.713066101,-69.355346680,43.71,-69.36
2006-09-17 20:00,43.713100433,-69.355331421,43.71,-69.36
2006-09-17 21:00,43.713165283,-69.355316162,43.71,-69.36
2006-09-17 22:00,43.713165283,-69.355300903,43.71,-69.36
2006-09-17 23:00,43.713268280,-69.355285645,43.71,-69.36
2006-09-18 00:00,43.713233948,-69.355285645,43.71,-69.36
2006-09-18 01:00,43.713214874,-69.355247498,43.71,-69.36
2006-09-18 02:00,43.713214874,-69.355201721,43.71,-69.36
2006-09-18 03:00,43.713249207,-69.355049133,43.71,-69.36
2006-09-18 04:00,43.713214874,-69.354919434,43.71,-69.36
2006-09-18 05:00,43.713066101,-69.354919434,43.71,-69.36
2006-09-18 06:00,43.713016510,-69.354896545,43.71,-69.36
2006-09-18 07:00,43.713031769,-69.354965210,43.71,-69.36
2006-09-18 08:00,43.713100433,-69.355018616,43.71,-69.36
2006-09-18 09:00,43.713134766,-69.355033875,43.71,-69.36
2006-09-18 10:00,43.713134766,-69.355102539,43.71,-69.36
2006-09-18 11:00,43.713115692,-69.355133057,43.71,-69.36
2006-09-18 12:00,43.713115692,-69.355163574,43.71,-69.36
2006-09-18 13:00,43.713150024,-69.355186462,43.71,-69.36
2006-09-18 14:00,43.713134766,-69.355201721,43.71,-69.36
2006-09-18 15:00,43.713085175,-69.355148315,43.71,-69.36
2006-09-18 16:00,43.713100433,-69.355133057,43.71,-69.36
2006-09-18 17:00,43.713134766,-69.355117798,43.71,-69.36
2006-09-18 18:00,43.713165283,-69.355079651,43.71,-69.36
2006-09-18 19:00,43.713184357,-69.355064392,43.71,-69.36
2006-09-18 20:00,43.713214874,-69.355049133,43.71,-69.36
2006-09-18 21:00,43.713283539,-69.355079651,43.71,-69.36
2006-09-18 22:00,43.713268280,-69.355117798,43.71,-69.36
2006-09-18 23:00,43.713268280,-69.355133057,43.71,-69.36
2006-09-19 00:00,43.713233948,-69.355117798,43.71,-69.36
2006-09-19 01:00,43.713233948,-69.355117798,43.71,-69.36
2006-09-19 02:00,43.713184357,-69.355117798,43.71,-69.36
2006-09-19 03:00,43.713184357,-69.355117798,43.71,-69.36
2006-09-19 04:00,43.713184357,-69.355102539,43.71,-69.36
2006-09-19 05:00,43.713115692,-69.355018616,43.71,-69.36
2006-09-19 06:00,43.713165283,-69.355049133,43.71,-69.36
2006-09-19 07:00,43.713184357,-69.354965210,43.71,-69.36
2006-09-19 08:00,43.713214874,-69.355049133,43.71,-69.36
2006-09-19 09:00,43.713184357,-69.355049133,43.71,-69.36
2006-09-19 10:00,43.713233948,-69.355102539,43.71,-69.36
2006-09-19 11:00,43.713268280,-69.355064392,43.71,-69.36
2006-09-19 12:00,43.713249207,-69.355148315,43.71,-69.36
2006-09-19 13:00,43.713214874,-69.355148315,43.71,-69.36
2006-09-19 14:00,43.713233948,-69.355133057,43.71,-69.36
2006-09-19 15:00,43.713184357,-69.355102539,43.71,-69.36
2006-09-19 16:00,43.713085175,-69.355133057,43.71,-69.36
2006-09-19 17:00,43.713085175,-69.355133057,43.71,-69.36
2006-09-19 18:00,43.713100433,-69.355133057,43.71,-69.36
2006-09-19 19:00,43.713150024,-69.355102539,43.71,-69.36
2006-09-19 20:00,43.713199615,-69.355133057,43.71,-69.36
2006-09-19 21:00,43.713233948,-69.355148315,43.71,-69.36
2006-09-19 22:00,43.713233948,-69.355216980,43.71,-69.36
2006-09-19 23:00,43.713283539,-69.355216980,43.71,-69.36
2006-09-20 00:00,43.713283539,-69.355300903,43.70,-69.35
2006-09-20 01:00,43.713233948,-69.355300903,43.71,-69.36
2006-09-20 02:00,43.713199615,-69.355300903,43.71,-69.36
2006-09-20 03:00,43.713214874,-69.355285645,43.71,-69.36
2006-09-20 04:00,43.713115692,-69.355285645,43.71,-69.36
2006-09-20 05:00,43.713115692,-69.355316162,43.71,-69.36
2006-09-20 06:00,43.713165283,-69.355232239,43.71,-69.36
2006-09-20 07:00,43.713134766,-69.355216980,43.71,-69.36
2006-09-20 08:00,43.713115692,-69.355133057,43.71,-69.36
2006-09-20 09:00,43.713001251,-69.355117798,43.71,-69.36
2006-09-20 10:00,43.712799072,-69.355117798,43.71,-69.36
2006-09-20 11:00,43.712783813,-69.355216980,43.71,-69.36
2006-09-20 12:00,43.712833405,-69.355316162,43.71,-69.36
2006-09-20 13:00,43.712833405,-69.355453491,43.71,-69.36
2006-09-20 14:00,43.712833405,-69.355499268,43.71,-69.36
2006-09-20 15:00,43.712932587,-69.355499268,43.71,-69.36
2006-09-20 16:00,43.712966919,-69.355514526,43.71,-69.36
2006-09-20 17:00,43.712982178,-69.355453491,43.71,-69.36
2006-09-20 18:00,43.713001251,-69.355369568,43.71,-69.36
2006-09-20 19:00,43.713050842,-69.355300903,43.71,-69.36
2006-09-20 20:00,43.713100433,-69.355163574,43.71,-69.36
2006-09-20 21:00,43.713150024,-69.355133057,43.71,-69.36
2006-09-20 22:00,43.713115692,-69.355102539,43.71,-69.36
2006-09-20 23:00,43.713165283,-69.355079651,43.71,-69.36
2006-09-21 00:00,43.713050842,-69.355102539,43.71,-69.36
2006-09-21 01:00,43.713001251,-69.355117798,43.71,-69.36
2006-09-21 02:00,43.712966919,-69.355216980,43.71,-69.36
2006-09-21 03:00,43.712898254,-69.355232239,43.71,-69.36
2006-09-21 04:00,43.712848663,-69.355346680,43.71,-69.36
2006-09-21 05:00,43.712867737,-69.355430603,43.71,-69.36
2006-09-21 06:00,43.712917328,-69.355400085,43.71,-69.36
2006-09-21 07:00,43.712882996,-69.355316162,43.71,-69.36
2006-09-21 08:00,43.712932587,-69.355216980,43.71,-69.36
2006-09-21 09:00,43.712917328,-69.355079651,43.71,-69.36
2006-09-21 10:00,43.712917328,-69.355033875,43.71,-69.36
2006-09-21 11:00,43.712898254,-69.355033875,43.71,-69.36
2006-09-21 12:00,43.712898254,-69.355079651,43.71,-69.36
2006-09-21 13:00,43.712833405,-69.355064392,43.71,-69.36
2006-09-21 14:00,43.712833405,-69.355216980,43.71,-69.36
2006-09-21 15:00,43.712898254,-69.355247498,43.71,-69.36
2006-09-21 16:00,43.712917328,-69.355232239,43.71,-69.36
2006-09-21 17:00,43.712951660,-69.355148315,43.71,-69.36
2006-09-21 18:00,43.712932587,-69.355163574,43.71,-69.36
2006-09-21 19:00,43.712917328,-69.355270386,43.71,-69.36
2006-09-21 20:00,43.713031769,-69.355216980,43.71,-69.36
2006-09-21 21:00,43.713016510,-69.355148315,43.71,-69.36
2006-09-21 22:00,43.713066101,-69.355148315,43.71,-69.36
2006-09-21 23:00,43.713115692,-69.355270386,43.71,-69.36
2006-09-22 00:00,43.713115692,-69.355216980,43.71,-69.36
2006-09-22 01:00,43.713184357,-69.355232239,43.71,-69.36
2006-09-22 02:00,43.713184357,-69.355285645,43.71,-69.36
2006-09-22 03:00,43.713199615,-69.355300903,43.71,-69.36
2006-09-22 04:00,43.713134766,-69.355247498,43.71,-69.36
2006-09-22 05:00,43.713085175,-69.355163574,43.71,-69.36
2006-09-22 06:00,43.713066101,-69.355148315,43.71,-69.36
2006-09-22 07:00,43.713050842,-69.355163574,43.71,-69.36
2006-09-22 08:00,43.713016510,-69.355148315,43.71,-69.36
2006-09-22 09:00,43.713031769,-69.355117798,43.71,-69.36
2006-09-22 10:00,43.713031769,-69.355102539,43.71,-69.36
2006-09-22 11:00,43.713066101,-69.355117798,43.71,-69.36
2006-09-22 12:00,43.713016510,-69.355133057,43.71,-69.36
2006-09-22 13:00,43.713016510,-69.355216980,43.71,-69.36
2006-09-22 14:00,43.712966919,-69.355216980,43.71,-69.36
2006-09-22 15:00,43.713031769,-69.355346680,43.71,-69.36
2006-09-22 16:00,43.713050842,-69.355400085,43.71,-69.36
2006-09-22 17:00,43.713134766,-69.355316162,43.71,-69.36
2006-09-22 18:00,43.713115692,-69.355270386,43.71,-69.36
2006-09-22 19:00,43.713150024,-69.355270386,43.71,-69.36
2006-09-22 20:00,43.713150024,-69.355186462,43.71,-69.36
2006-09-22 21:00,43.713233948,-69.355117798,43.71,-69.36
2006-09-22 22:00,43.713214874,-69.355064392,43.71,-69.36
2006-09-22 23:00,43.713233948,-69.355102539,43.71,-69.36
2006-09-23 00:00,43.713249207,-69.355201721,43.71,-69.36
2006-09-23 01:00,43.713184357,-69.355201721,43.71,-69.36
2006-09-23 02:00,43.713150024,-69.355186462,43.71,-69.36
2006-09-23 03:00,43.713150024,-69.355216980,43.71,-69.36
2006-09-23 04:00,43.713165283,-69.355270386,43.71,-69.36
2006-09-23 05:00,43.713150024,-69.355346680,43.71,-69.36
2006-09-23 06:00,43.713134766,-69.355331421,43.71,-69.36
2006-09-23 07:00,43.713150024,-69.355232239,43.71,-69.36
2006-09-23 08:00,43.713199615,-69.355216980,43.71,-69.36
2006-09-23 09:00,43.713184357,-69.355216980,43.71,-69.36
2006-09-23 10:00,43.713214874,-69.355216980,43.71,-69.36
2006-09-23 11:00,43.713233948,-69.355216980,43.71,-69.36
2006-09-23 12:00,43.713249207,-69.355232239,43.71,-69.36
2006-09-23 13:00,43.713283539,-69.355247498,43.71,-69.36
2006-09-23 14:00,43.713348389,-69.355270386,43.71,-69.36
2006-09-23 15:00,43.713382721,-69.355300903,43.71,-69.36
2006-09-23 16:00,43.713348389,-69.355331421,43.71,-69.36
2006-09-23 17:00,43.713317871,-69.355300903,43.71,-69.36
2006-09-23 18:00,43.713298798,-69.355270386,43.71,-69.36
2006-09-23 19:00,43.713283539,-69.355186462,43.71,-69.36
2006-09-23 20:00,43.713268280,-69.355064392,43.71,-69.36
2006-09-23 21:00,43.713214874,-69.355033875,43.71,-69.36
2006-09-23 22:00,43.713150024,-69.355049133,43.71,-69.36
2006-09-23 23:00,43.713115692,-69.355102539,43.71,-69.36
2006-09-24 00:00,43.713134766,-69.355117798,43.71,-69.36
2006-09-24 01:00,43.713165283,-69.355148315,43.71,-69.36
2006-09-24 02:00,43.713134766,-69.355216980,43.71,-69.36
2006-09-24 03:00,43.713100433,-69.355300903,43.71,-69.36
2006-09-24 04:00,43.713134766,-69.355430603,43.71,-69.36
2006-09-24 05:00,43.713150024,-69.355499268,43.71,-69.36
2006-09-24 06:00,43.713100433,-69.355583191,43.71,-69.36
2006-09-24 07:00,43.713050842,-69.355552673,43.71,-69.36
2006-09-24 08:00,43.713134766,-69.355529785,43.71,-69.36
2006-09-24 09:00,43.713134766,-69.355514526,43.71,-69.36
2006-09-24 10:00,43.713199615,-69.355453491,43.71,-69.36
2006-09-24 11:00,43.713199615,-69.355400085,43.71,-69.36
2006-09-24 12:00,43.713268280,-69.355369568,43.71,-69.36
2006-09-24 13:00,43.713298798,-69.355300903,43.71,-69.36
2006-09-24 14:00,43.713367462,-69.355186462,43.71,-69.36
2006-09-24 15:00,43.713348389,-69.355148315,43.71,-69.36
2006-09-24 16:00,43.713249207,-69.355033875,43.71,-69.36
2006-09-24 17:00,43.713214874,-69.355079651,43.71,-69.36
2006-09-24 18:00,43.713184357,-69.355033875,43.71,-69.36
2006-09-24 19:00,43.713199615,-69.355079651,43.71,-69.36
2006-09-24 20:00,43.713100433,-69.355117798,43.71,-69.36
2006-09-24 21:00,43.713066101,-69.355033875,43.71,-69.36
2006-09-24 22:00,43.713150024,-69.355049133,43.71,-69.36
2006-09-24 23:00,43.713268280,-69.355033875,43.71,-69.36
2006-09-25 00:00,43.713283539,-69.354949951,43.71,-69.36
2006-09-25 01:00,43.713298798,-69.354934692,43.71,-69.36
2006-09-25 02:00,43.713233948,-69.354881287,43.71,-69.36
2006-09-25 03:00,43.713184357,-69.354896545,43.71,-69.36
2006-09-25 04:00,43.713085175,-69.354965210,43.71,-69.36
2006-09-25 05:00,43.712966919,-69.355102539,43.71,-69.36
2006-09-25 06:00,43.712898254,-69.355201721,43.71,-69.36
2006-09-25 07:00,43.712848663,-69.355270386,43.71,-69.36
2006-09-25 08:00,43.712867737,-69.355384827,43.71,-69.36
2006-09-25 09:00,43.712867737,-69.355346680,43.71,-69.36
2006-09-25 10:00,43.712848663,-69.355247498,43.71,-69.36
2006-09-25 11:00,43.712898254,-69.355247498,43.71,-69.36
2006-09-25 12:00,43.712898254,-69.355300903,43.71,-69.36
2006-09-25 13:00,43.712951660,-69.355384827,43.71,-69.36
2006-09-25 14:00,43.713100433,-69.355468750,43.71,-69.36
2006-09-25 15:00,43.713249207,-69.355529785,43.71,-69.36
2006-09-25 16:00,43.713184357,-69.355552673,43.71,-69.36
2006-09-25 17:00,43.713199615,-69.355468750,43.71,-69.36
2006-09-25 18:00,43.713233948,-69.355400085,43.71,-69.36
2006-09-25 19:00,43.713249207,-69.355285645,43.71,-69.36
2006-09-25 20:00,43.713214874,-69.355163574,43.71,-69.36
2006-09-25 21:00,43.713184357,-69.355133057,43.71,-69.36
2006-09-25 22:00,43.713165283,-69.355018616,43.71,-69.36
2006-09-25 23:00,43.713184357,-69.355117798,43.71,-69.36
2006-09-26 00:00,43.713150024,-69.355049133,43.71,-69.36
2006-09-26 01:00,43.713165283,-69.355117798,43.71,-69.36
2006-09-26 02:00,43.713150024,-69.355102539,43.71,-69.36
2006-09-26 03:00,43.713150024,-69.355148315,43.71,-69.36
2006-09-26 04:00,43.713115692,-69.355163574,43.71,-69.36
2006-09-26 05:00,43.713150024,-69.355216980,43.71,-69.36
2006-09-26 06:00,43.713050842,-69.355316162,43.71,-69.36
2006-09-26 07:00,43.713100433,-69.355133057,43.71,-69.36
2006-09-26 08:00,43.713085175,-69.355186462,43.71,-69.36
2006-09-26 09:00,43.713115692,-69.355163574,43.71,-69.36
2006-09-26 10:00,43.713214874,-69.355148315,43.71,-69.36
2006-09-26 11:00,43.713214874,-69.354980469,43.71,-69.36
2006-09-26 12:00,43.713233948,-69.354949951,43.71,-69.36
2006-09-26 13:00,43.713184357,-69.354934692,43.71,-69.36
2006-09-26 14:00,43.713214874,-69.354949951,43.71,-69.36
2006-09-26 15:00,43.713184357,-69.354980469,43.71,-69.36
2006-09-26 16:00,43.713134766,-69.355003357,43.71,-69.36
2006-09-26 17:00,43.713100433,-69.355049133,43.71,-69.36
2006-09-26 18:00,43.713150024,-69.355102539,43.71,-69.36
2006-09-26 19:00,43.713050842,-69.355117798,43.71,-69.36
2006-09-26 20:00,43.712982178,-69.355186462,43.71,-69.36
2006-09-26 21:00,43.712966919,-69.355201721,43.71,-69.36
2006-09-26 22:00,43.712951660,-69.355270386,43.71,-69.36
2006-09-26 23:00,43.712966919,-69.355285645,43.71,-69.36
2006-09-27 00:00,43.712966919,-69.355300903,43.71,-69.36
2006-09-27 01:00,43.713031769,-69.355316162,43.71,-69.36
2006-09-27 02:00,43.713050842,-69.355270386,43.71,-69.36
2006-09-27 03:00,43.713134766,-69.355331421,43.71,-69.36
2006-09-27 04:00,43.713268280,-69.355346680,43.71,-69.36
2006-09-27 05:00,43.713298798,-69.355300903,43.71,-69.36
2006-09-27 06:00,43.713214874,-69.355331421,43.71,-69.36
2006-09-27 07:00,43.713199615,-69.355316162,43.71,-69.36
2006-09-27 08:00,43.713134766,-69.355384827,43.71,-69.36
2006-09-27 09:00,43.713115692,-69.355346680,43.71,-69.36
2006-09-27 10:00,43.713100433,-69.355384827,43.71,-69.36
2006-09-27 11:00,43.713115692,-69.355415344,43.71,-69.36
2006-09-27 12:00,43.713184357,-69.355430603,43.71,-69.36
2006-09-27 13:00,43.713184357,-69.355453491,43.71,-69.36
2006-09-27 14:00,43.713249207,-69.355453491,43.71,-69.36
2006-09-27 15:00,43.713249207,-69.355453491,43.71,-69.36
2006-09-27 16:00,43.713249207,-69.355499268,43.71,-69.36
2006-09-27 17:00,43.713283539,-69.355499268,43.71,-69.36
2006-09-27 18:00,43.713298798,-69.355484009,43.71,-69.36
2006-09-27 19:00,43.713317871,-69.355430603,43.71,-69.36
2006-09-27 20:00,43.713249207,-69.355415344,43.71,-69.36
2006-09-27 21:00,43.713199615,-69.355369568,43.71,-69.36
2006-09-27 22:00,43.713233948,-69.355369568,43.71,-69.36
2006-09-27 23:00,43.713249207,-69.355346680,43.71,-69.36
2006-09-28 00:00,43.713283539,-69.355384827,43.71,-69.36
2006-09-28 01:00,43.713317871,-69.355346680,43.71,-69.36
2006-09-28 02:00,43.713283539,-69.355270386,43.71,-69.36
2006-09-28 03:00,43.713283539,-69.355316162,43.71,-69.36
2006-09-28 04:00,43.713298798,-69.355400085,43.71,-69.36
2006-09-28 05:00,43.713214874,-69.355415344,43.71,-69.36
2006-09-28 06:00,43.713184357,-69.355468750,43.71,-69.36
2006-09-28 07:00,43.713214874,-69.355499268,43.71,-69.36
2006-09-28 08:00,43.713249207,-69.355453491,43.71,-69.36
2006-09-28 09:00,43.713150024,-69.355484009,43.71,-69.36
2006-09-28 10:00,43.713184357,-69.355514526,43.71,-69.36
2006-09-28 11:00,43.713165283,-69.355499268,43.71,-69.36
2006-09-28 12:00,43.713199615,-69.355514526,43.71,-69.36
2006-09-28 13:00,43.713199615,-69.355453491,43.71,-69.36
2006-09-28 14:00,43.713249207,-69.355468750,43.71,-69.36
2006-09-28 15:00,43.713249207,-69.355468750,43.71,-69.36
2006-09-28 16:00,43.713249207,-69.355384827,43.71,-69.36
2006-09-28 17:00,43.713233948,-69.355430603,43.71,-69.36
2006-09-28 18:00,43.713249207,-69.355369568,43.71,-69.36
2006-09-28 19:00,43.713184357,-69.355415344,43.71,-69.36
2006-09-28 20:00,43.713165283,-69.355415344,43.71,-69.36
2006-09-28 21:00,43.713115692,-69.355453491,43.71,-69.36
2006-09-28 22:00,43.713100433,-69.355400085,43.71,-69.36
2006-09-28 23:00,43.713100433,-69.355468750,43.71,-69.36
2006-09-29 00:00,43.713165283,-69.355567932,43.71,-69.36
2006-09-29 01:00,43.713233948,-69.355552673,43.71,-69.36
2006-09-29 02:00,43.713268280,-69.355529785,43.71,-69.36
2006-09-29 03:00,43.713298798,-69.355453491,43.71,-69.36
2006-09-29 04:00,43.713298798,-69.355484009,43.71,-69.36
2006-09-29 05:00,43.713317871,-69.355484009,43.71,-69.36
2006-09-29 06:00,43.713298798,-69.355514526,43.71,-69.36
2006-09-29 07:00,43.713283539,-69.355567932,43.71,-69.36
2006-09-29 08:00,43.713214874,-69.355552673,43.71,-69.36
2006-09-29 09:00,43.713199615,-69.355613708,43.71,-69.36
2006-09-29 10:00,43.713085175,-69.355613708,43.71,-69.36
2006-09-29 11:00,43.713085175,-69.355651855,43.71,-69.36
2006-09-29 12:00,43.713085175,-69.355583191,43.71,-69.36
2006-09-29 13:00,43.713233948,-69.355636597,43.71,-69.36
2006-09-29 14:00,43.713249207,-69.355567932,43.71,-69.36
2006-09-29 15:00,43.713298798,-69.355453491,43.71,-69.36
2006-09-29 16:00,43.713298798,-69.355415344,43.71,-69.36